Flag for Canada Weather past 2 weeks in Whistler, British Columbia, Canada

Now
55 °F

Cool.


Feels Like: 54 °F
Forecast: 45 / 49 °F
Wind: 6 mph from Southeast

Location: Squamish Airport

Current Time: Oct 21, 2014 at 1:49:44 PM

Latest Report: Oct 21, 2014 at 1:00 PM


Visibility: N/A

Pressure: 29.80 "Hg

Humidity: 88%

Dew point: 51 °F

Location of WhistlerLocation

Historic Weather in Whistler — Graph

°F

Whistler temperature yesterday

Maximum temperature yesterday: 63 °F (at 2:00 PM)
Minimum temperature yesterday: 51 °F (at 9:00 PM)
Average temperature yesterday: 57 °F

Past Weeks' High & Low Weather Summary

 TemperatureHumidityPressure
High71 °F (Oct 7, 1:00 PM)100% (Oct 10, 6:00 AM)30.19 "Hg (Oct 10, 6:00 AM)
Low46 °F (Oct 10, 6:00 AM)57% (Oct 9, 2:00 PM)29.52 "Hg (Oct 15, 4:00 AM)
Average54 °F92%29.86 "Hg
* Reported Oct 6 12:00 Noon — Oct 21 12:00 Noon, Whistler, Weather by CustomWeather, © 2014

Note: Actual official high and low records may vary slightly from our data, if they occured in-between our weather recording intervals... More about our weather records

Advertising

Whistler weather history for previous 24 hours

 ConditionsComfort  
Time TempWeatherWind HumidityBarometerVisibility
12:00 PM
Oct 21
55 °FCool.7 mph88%29.80 "HgN/A
11:00 AM54 °FCool.7 mph93%29.80 "HgN/A
10:00 AM52 °FCool.1 mph97%29.79 "HgN/A
9:00 AM51 °FCool.1 mph97%29.78 "HgN/A
8:00 AM49 °FCool.1 mph100%29.78 "HgN/A
7:00 AM51 °FCool.2 mph98%29.75 "HgN/A
6:00 AM51 °FCool.1 mph98%29.74 "HgN/A
5:00 AM51 °FCool.No wind98%29.74 "HgN/A
4:00 AM51 °FCool.1 mph98%29.73 "HgN/A
3:00 AM51 °FCool.No wind98%29.73 "HgN/A
2:00 AM49 °FCool.No wind100%29.73 "HgN/A
1:00 AM51 °FCool.No wind97%29.74 "HgN/A
12:00 AM52 °FCool.1 mph91%29.73 "HgN/A
11:00 PM
Oct 20
52 °FCool.1 mph97%29.73 "HgN/A
10:00 PM52 °FCool.1 mph97%29.72 "HgN/A
9:00 PM51 °FCool.1 mph100%29.72 "HgN/A
8:00 PM54 °FCool.2 mph94%29.72 "HgN/A
7:00 PM55 °FCool.2 mph91%29.68 "HgN/A
6:00 PM58 °FCool.3 mph80%29.67 "HgN/A
5:00 PM59 °FCool.7 mph69%29.67 "HgN/A
4:00 PM61 °FCool.8 mph65%29.67 "HgN/A
3:00 PM62 °FCool.8 mph67%29.67 "HgN/A
2:00 PM63 °FMild.9 mph67%29.66 "HgN/A
1:00 PM61 °FCool.8 mph78%29.66 "HgN/A
Weather by CustomWeather, © 2014

See weather overviewHow to use our weather pages